This demonstration page uses our WeatherBlox Daily Observations layout. Learn more.

Left ArrowRight Arrow

39.08367, -84.50855

Hourly Observations for July 14, 2015

Temp ( °F °C ) Dew Point ( °F °C ) Humidity (%) Winds ( mph kmh ) Pressure ( in mb ) Visibility ( mi km ) Precip ( " mm )
12:00 am 00:00 Mostly Cloudy with Thunderstorms 72 22 70 21 94 94 SSW 8 13 29.71 1006 6 10 0.00 0.00
12:19 am 00:19 Mostly Cloudy with Nearby Thunderstorms 71 21.7 69 20.6 94 94 S 8 13 29.71 1006 10 16 0.02 0.51
12:40 am 00:40 Mostly Cloudy with Light Rain 70 21 70 21 100 100 SW 10 17 29.71 1006 9 14 0.00 0.00
12:53 am 00:53 Partly Cloudy with Light Rain 71 21.7 70 21.1 96 96 SSW 12 19 29.66 1005 10 16 0.05 1.27
1:11 am 01:11 Mostly Cloudy with Nearby Thunderstorms 72 22.2 70 21.1 94 94 N 12 19 29.77 1008 10 16 0.00 0.03
1:31 am 01:31 Cloudy with Thunderstorms 72 22.2 71 21.7 97 97 E 5 7 29.74 1007 10 16 0.02 0.51
1:48 am 01:48 Partly Cloudy with Nearby Thunderstorms 72 22 70 21 94 94 SSE 6 9 29.74 1007 10 16 0.00 0.00
1:53 am 01:53 Partly Cloudy with Nearby Thunderstorms 71 21.7 71 21.7 100 100 SSE 5 7 29.72 1007 10 16 0.02 0.51
2:31 am 02:31 Mostly Cloudy 71 21.7 70 21.1 96 96 SSW 8 13 29.71 1006 10 16 0.00 0.03
2:53 am 02:53 Mostly Clear 71 21.7 70 21.1 96 96 SSW 8 13 29.68 1005 10 16 0.00 0.03
3:53 am 03:53 Partly Cloudy 71 21.7 70 21.1 96 96 SSW 9 15 29.65 1004 10 16 0.00 0.00
4:53 am 04:53 Clear 69 20.6 68 20 96 96 SSW 9 15 29.66 1004 10 16 0.00 0.03
5:53 am 05:53 Clear 68 20 67 19.4 96 96 SSW 7 11 29.66 1005 10 16 0.00 0.00
6:53 am 06:53 Mostly Sunny 69 20.6 68 20 96 96 SSW 6 9 29.66 1005 10 16 0.00 0.00
7:53 am 07:53 Mostly Sunny 70 21.1 68 20 93 93 SSW 7 11 29.65 1004 10 16 0.00 0.00
8:53 am 08:53 Sunny 74 23.3 70 21.1 88 88 VRB 5 7 29.63 1004 10 16 0.00 0.00
9:53 am 09:53 Sunny 79 26.1 72 22.2 79 79 W 16 26 29.64 1004 10 16 0.00 0.00
10:53 am 10:53 Mostly Sunny 82 27.8 74 23.3 77 77 WSW 16 26 29.63 1004 10 16 0.00 0.00
11:20 am 11:20 Mostly Cloudy 82 28 73 23 74 74 W 13 20 29.62 1003 10 16 0.00 0.00
11:53 am 11:53 Mostly Sunny 84 28.9 75 23.9 74 74 W 16 26 29.63 1003 10 16 0.00 0.00
12:53 pm 12:53 Sunny 86 30 74 23.3 67 67 SW 16 26 29.60 1003 10 16 0.00 0.00
1:53 pm 13:53 Mostly Sunny 88 31.1 72 22.2 59 59 WSW 12 19 29.60 1002 10 16 0.00 0.00
2:53 pm 14:53 Mostly Sunny 90 32.2 71 21.7 54 54 WSW 23 37 29.56 1001 10 16 0.00 0.00
3:53 pm 15:53 Partly Cloudy with Thunderstorms 86 30 69 20.6 57 57 W 25 41 29.54 1000 10 16 0.00 0.03
4:53 pm 16:53 Mostly Cloudy with Thunderstorms 80 26.7 71 21.7 74 74 VRB 7 11 29.57 1002 7 11 0.03 0.76
5:50 pm 17:50 Partly Cloudy 84 29 70 21 62 62 W 16 26 29.56 1001 10 16 0.00 0.00
5:53 pm 17:53 Mostly Cloudy 84 28.9 68 20 59 59 W 16 26 29.58 1002 10 16 0.02 0.51
6:53 pm 18:53 Cloudy 81 27.2 66 18.9 61 61 N 15 24 29.59 1002 10 16 0.00 0.00
7:53 pm 19:53 Sunny 80 26.7 64 17.8 58 58 NNW 18 30 29.61 1003 10 16 0.00 0.00
8:53 pm 20:53 Mostly Sunny 77 25 62 16.7 60 60 NNW 9 15 29.67 1005 10 16 0.00 0.00
9:53 pm 21:53 Clear 76 24.4 62 16.7 62 62 VRB 5 7 29.69 1006 10 16 0.00 0.00
10:53 pm 22:53 Clear 74 23.3 62 16.7 67 67 NW 8 13 29.71 1006 10 16 0.00 0.00
11:53 pm 23:53 Clear 73 22.8 63 17.2 71 71 VRB 5 7 29.74 1007 10 16 0.00 0.00

Powered by AerisWeather